sat.trackr.live / text

‹ back to catalog

BEIDOU-3 M21 (C43)

NORAD 44794 · 2019-078B

PAYLOAD ACTIVE UNKNOWN

§ Identity

Operator
Country
PRC
Launch date
2019-11-23
Launch site
XICLF
Launch vehicle
Mass (kg)
RCS (m²)

Purposes: earth_obs, nav

External: N2YO · Heavens-Above · Gunter

§ Orbital elements

Epoch: 2026-05-24T01:24:55.154016Z

Period
773.25 min
Inclination
53.9315°
Eccentricity
0.0004812
Mean motion
1.86227499 rev/d
Perigee alt
21,515.0 km
Apogee alt
21,541.8 km
Semi-major
27,906.5 km
B*
0.0000e+0
RAAN
300.6372°
Arg perigee
48.4717°
Mean anomaly
311.5477°
Rev number
4,420

§ Raw data

BEIDOU-3 M21 (C43)1 44794U 19078B   26144.05897169 -.00000081  00000+0  00000+0 0  99932 44794  53.9315 300.6372 0004812  48.4717 311.5477  1.86227499 44209

JSON: /api/v1/satellites/44794 · /tle

For live sub-satellite position, see the globe view (requires WebGL).

§ Visibility from observer

Set your observer location to see the next 7 days of passes ≥ 10°. The values pass through the URL so the page stays shareable.

No JS? Fill the form by hand. The geolocation button needs JavaScript.